When you browse on this site, cookies collect data to enhance your experience and personalize the content and advertising you see.
Visit our Privacy Policy to learn more. By continuing to use the site, you agree to this use of cookies and data.
  • In Deutschland
  • Länderverzeichnis
  • Für 7 Tage
  • Wassertemperatur
  • Satellitenkarten
  • Wetterkarte
  • Widgets
  • user-avatar
    Anmelden

    Stündliche Wetter Pune

    Heute, 16 Dezember, Sonntag

    Zeit Temperatur Niederschläge Wind Luftdruck Luftfeuchtigkeit
    00:00 +20°C° 0 mm 2 m/S 714 mmHg 56%
    01:00 +20°C° 0 mm 2 m/S 713 mmHg 56%
    02:00 +19°C° 0 mm 3 m/S 713 mmHg 57%
    03:00 +19°C° 0 mm 3 m/S 713 mmHg 58%
    04:00 +19°C° 0 mm 3 m/S 713 mmHg 59%
    05:00 +19°C° 0 mm 3 m/S 713 mmHg 59%
    06:00 +19°C° 0 mm 3 m/S 714 mmHg 57%
    07:00 +20°C° 0 mm 4 m/S 714 mmHg 55%
    08:00 +20°C° 0 mm 4 m/S 714 mmHg 54%
    09:00 +22°C° 0 mm 4 m/S 715 mmHg 49%
    10:00 +25°C° 0 mm 4 m/S 715 mmHg 44%
    11:00 +27°C° 0 mm 3 m/S 715 mmHg 40%
    12:00 +28°C° 0 mm 3 m/S 714 mmHg 38%
    13:00 +28°C° 0 mm 3 m/S 714 mmHg 36%
    14:00 +29°C° 0 mm 2 m/S 713 mmHg 33%
    15:00 +28°C° 0 mm 2 m/S 713 mmHg 34%
    16:00 +27°C° 0 mm 2 m/S 713 mmHg 36%
    17:00 +26°C° 0 mm 3 m/S 712 mmHg 38%
    18:00 +25°C° 0 mm 3 m/S 713 mmHg 39%
    19:00 +22°C° 0 mm 3 m/S 713 mmHg 39%
    20:00 +21°C° 0 mm 3 m/S 713 mmHg 40%
    21:00 +21°C° 0 mm 3 m/S 713 mmHg 40%
    22:00 +20°C° 0 mm 3 m/S 713 mmHg 40%
    23:00 +19°C° 0 mm 2 m/S 713 mmHg 41%

    Morgen, 17 Dezember, Montag

    Zeit Temperatur Niederschläge Wind Luftdruck Luftfeuchtigkeit
    00:00 +19°C° 0 mm 2 m/S 713 mmHg 42%
    01:00 +18°C° 0 mm 2 m/S 713 mmHg 43%
    02:00 +18°C° 0 mm 2 m/S 712 mmHg 45%
    03:00 +17°C° 0 mm 2 m/S 712 mmHg 46%
    04:00 +17°C° 0 mm 2 m/S 712 mmHg 48%
    05:00 +16°C° 0 mm 2 m/S 712 mmHg 50%
    06:00 +17°C° 0 mm 2 m/S 713 mmHg 49%
    07:00 +18°C° 0 mm 2 m/S 713 mmHg 48%
    08:00 +19°C° 0 mm 2 m/S 714 mmHg 47%
    09:00 +21°C° 0 mm 3 m/S 714 mmHg 42%
    10:00 +24°C° 0 mm 3 m/S 714 mmHg 37%
    11:00 +26°C° 0 mm 4 m/S 714 mmHg 32%
    12:00 +26°C° 0 mm 3 m/S 714 mmHg 29%
    13:00 +27°C° 0 mm 3 m/S 713 mmHg 27%
    14:00 +28°C° 0 mm 3 m/S 712 mmHg 25%
    15:00 +27°C° 0 mm 3 m/S 712 mmHg 27%
    16:00 +27°C° 0 mm 2 m/S 712 mmHg 29%
    17:00 +26°C° 0 mm 2 m/S 712 mmHg 31%
    18:00 +25°C° 0 mm 2 m/S 712 mmHg 34%
    19:00 +23°C° 0 mm 2 m/S 712 mmHg 37%
    20:00 +21°C° 0 mm 2 m/S 713 mmHg 40%
    21:00 +21°C° 0 mm 3 m/S 713 mmHg 44%
    22:00 +20°C° 0 mm 3 m/S 713 mmHg 48%
    23:00 +20°C° 0 mm 3 m/S 713 mmHg 52%

    übermorgen, 18 Dezember, Dienstag

    Zeit Temperatur Niederschläge Wind Luftdruck Luftfeuchtigkeit
    00:00 +19°C° 0 mm 3 m/S 713 mmHg 55%
    01:00 +18°C° 0 mm 3 m/S 713 mmHg 59%
    02:00 +18°C° 0 mm 2 m/S 712 mmHg 63%
    03:00 +17°C° 0 mm 2 m/S 712 mmHg 65%
    04:00 +17°C° 0 mm 2 m/S 712 mmHg 66%
    05:00 +16°C° 0 mm 2 m/S 712 mmHg 68%
    06:00 +17°C° 0 mm 2 m/S 713 mmHg 65%
    07:00 +17°C° 0 mm 2 m/S 714 mmHg 63%
    08:00 +18°C° 0 mm 3 m/S 714 mmHg 60%
    09:00 +20°C° 0 mm 3 m/S 715 mmHg 53%
    10:00 +22°C° 0 mm 4 m/S 715 mmHg 46%
    11:00 +25°C° 0 mm 4 m/S 715 mmHg 38%
    12:00 +26°C° 0 mm 4 m/S 714 mmHg 35%
    13:00 +27°C° 0 mm 4 m/S 713 mmHg 31%
    14:00 +28°C° 0 mm 4 m/S 713 mmHg 27%
    15:00 +27°C° 0 mm 3 m/S 712 mmHg 28%
    16:00 +26°C° 0 mm 3 m/S 712 mmHg 29%
    17:00 +26°C° 0 mm 3 m/S 712 mmHg 30%
    18:00 +24°C° 0 mm 3 m/S 712 mmHg 32%
    19:00 +22°C° 0 mm 3 m/S 712 mmHg 34%
    20:00 +20°C° 0 mm 2 m/S 713 mmHg 35%
    21:00 +20°C° 0 mm 3 m/S 713 mmHg 37%
    22:00 +19°C° 0 mm 3 m/S 713 mmHg 39%
    23:00 +19°C° 0 mm 3 m/S 712 mmHg 41%

    19 Dezember, Mittwoch

    Zeit Temperatur Niederschläge Wind Luftdruck Luftfeuchtigkeit
    00:00 +18°C° 0 mm 3 m/S 712 mmHg 43%
    01:00 +18°C° 0 mm 3 m/S 712 mmHg 44%
    02:00 +17°C° 0 mm 2 m/S 712 mmHg 46%
    03:00 +17°C° 0 mm 3 m/S 712 mmHg 48%
    04:00 +17°C° 0 mm 3 m/S 712 mmHg 50%
    05:00 +16°C° 0 mm 3 m/S 712 mmHg 52%
    06:00 +17°C° 0 mm 3 m/S 712 mmHg 51%
    07:00 +18°C° 0 mm 3 m/S 713 mmHg 51%
    08:00 +19°C° 0 mm 3 m/S 714 mmHg 50%
    09:00 +21°C° 0 mm 3 m/S 714 mmHg 46%
    10:00 +23°C° 0 mm 4 m/S 714 mmHg 41%
    11:00 +26°C° 0 mm 4 m/S 714 mmHg 37%
    12:00 +27°C° 0 mm 4 m/S 714 mmHg 33%
    13:00 +28°C° 0 mm 4 m/S 713 mmHg 30%
    14:00 +29°C° 0 mm 3 m/S 712 mmHg 26%
    15:00 +28°C° 0 mm 3 m/S 712 mmHg 28%
    16:00 +28°C° 0 mm 3 m/S 712 mmHg 30%
    17:00 +27°C° 0 mm 2 m/S 712 mmHg 32%
    18:00 +25°C° 0 mm 2 m/S 712 mmHg 34%
    19:00 +24°C° 0 mm 2 m/S 713 mmHg 36%
    20:00 +21°C° 0 mm 3 m/S 713 mmHg 38%
    21:00 +21°C° 0 mm 3 m/S 713 mmHg 40%
    22:00 +20°C° 0 mm 2 m/S 713 mmHg 42%
    23:00 +20°C° 0 mm 2 m/S 713 mmHg 44%

    20 Dezember, Donnerstag

    Zeit Temperatur Niederschläge Wind Luftdruck Luftfeuchtigkeit
    00:00 +19°C° 0 mm 2 m/S 713 mmHg 46%
    01:00 +19°C° 0 mm 2 m/S 712 mmHg 49%
    02:00 +18°C° 0 mm 2 m/S 712 mmHg 51%
    03:00 +18°C° 0 mm 2 m/S 712 mmHg 54%
    04:00 +18°C° 0 mm 2 m/S 712 mmHg 57%
    05:00 +17°C° 0 mm 2 m/S 712 mmHg 59%
    06:00 +18°C° 0 mm 2 m/S 712 mmHg 58%
    07:00 +19°C° 0 mm 2 m/S 713 mmHg 57%
    08:00 +20°C° 0 mm 2 m/S 714 mmHg 56%
    09:00 +22°C° 0 mm 3 m/S 714 mmHg 51%
    10:00 +25°C° 0 mm 3 m/S 714 mmHg 46%
    11:00 +27°C° 0 mm 3 m/S 714 mmHg 42%
    12:00 +28°C° 0 mm 3 m/S 714 mmHg 39%
    13:00 +28°C° 0 mm 3 m/S 713 mmHg 37%
    14:00 +29°C° 0 mm 2 m/S 712 mmHg 34%
    15:00 +29°C° 0 mm 2 m/S 712 mmHg 36%
    16:00 +28°C° 0 mm 2 m/S 712 mmHg 38%
    17:00 +28°C° 0 mm 1 m/S 711 mmHg 40%
    18:00 +26°C° 0 mm 1 m/S 712 mmHg 43%
    19:00 +25°C° 0 mm 1 m/S 712 mmHg 46%
    20:00 +23°C° 0 mm 1 m/S 713 mmHg 49%
    21:00 +23°C° 0 mm 1 m/S 713 mmHg 50%
    22:00 +23°C° 0 mm 2 m/S 712 mmHg 50%
    23:00 +21°C° 0 mm 2 m/S 712 mmHg 51%

    21 Dezember, Freitag

    Zeit Temperatur Niederschläge Wind Luftdruck Luftfeuchtigkeit
    00:00 +21°C° 0 mm 2 m/S 712 mmHg 52%
    01:00 +20°C° 0 mm 2 m/S 712 mmHg 53%
    02:00 +20°C° 0 mm 2 m/S 711 mmHg 54%
    03:00 +20°C° 0 mm 2 m/S 711 mmHg 56%
    04:00 +19°C° 0 mm 2 m/S 711 mmHg 57%
    05:00 +19°C° 0 mm 2 m/S 711 mmHg 59%
    06:00 +20°C° 0 mm 2 m/S 712 mmHg 58%
    07:00 +21°C° 0 mm 2 m/S 713 mmHg 56%
    08:00 +21°C° 0 mm 3 m/S 713 mmHg 55%
    09:00 +24°C° 0 mm 3 m/S 714 mmHg 52%
    10:00 +26°C° 0 mm 3 m/S 714 mmHg 48%
    11:00 +28°C° 0 mm 3 m/S 714 mmHg 45%
    12:00 +29°C° 0 mm 2 m/S 713 mmHg 42%
    13:00 +30°C° 0 mm 2 m/S 713 mmHg 39%
    14:00 +31°C° 0 mm 1 m/S 712 mmHg 35%
    15:00 +30°C° 0 mm 1 m/S 712 mmHg 37%
    16:00 +30°C° 0 mm 1 m/S 712 mmHg 39%
    17:00 +29°C° 0 mm 1 m/S 712 mmHg 41%
    18:00 +28°C° 0 mm 1 m/S 712 mmHg 45%
    19:00 +26°C° 0 mm 1 m/S 712 mmHg 48%
    20:00 +25°C° 0 mm 1 m/S 713 mmHg 52%
    21:00 +24°C° 0 mm 1 m/S 712 mmHg 52%
    22:00 +24°C° 0 mm 1 m/S 712 mmHg 53%
    23:00 +23°C° 0 mm 1 m/S 712 mmHg 54%
    Mehr zeigen